This is the latest recevied weather packets stored in our database for station/object KGRR-WX. If no packets are shown the sender has not sent any weather packets the latest 10 day(s).
| Time | Temp. | Humidity | Pressure | Rain* | Wind** | Luminosity | Snow |
|---|---|---|---|---|---|---|---|
| 1788552010 | 25° C | 79% | 985.4 hPa | 0 mm | - | - | - |
| 1788551111 | 25° C | 84% | 985.5 hPa | 0 mm | - | - | - |
| 1788550210 | 24.44° C | 84% | 985.5 hPa | 0 mm | - | - | - |
| 1788549311 | 24.44° C | 84% | 985.6 hPa | 0 mm | - | - | - |
| 1788548410 | 23.89° C | 84% | 985.6 hPa | 0 mm | - | - | - |
| 1788547511 | 23.89° C | 79% | 986.1 hPa | 0 mm | - | - | - |
| 1788546608 | 25° C | 79% | 986.3 hPa | 0 mm | - | - | - |
| 1788545711 | 25° C | 79% | 986.3 hPa | 0 mm | - | - | - |
| 1788544810 | 24.44° C | 79% | 986.3 hPa | 0 mm | - | - | - |
| 1788543911 | 23.89° C | 86% | 985.5 hPa | 0.25 mm | - | - | - |
| 1788543009 | 22.78° C | 89% | 985.6 hPa | 0 mm | - | - | - |
| 1788542111 | 22.22° C | 89% | 985.6 hPa | 0 mm | - | - | - |
| 1788541209 | 21.67° C | 89% | 985.6 hPa | 0 mm | - | - | - |
| 1788540308 | 22.22° C | 89% | 986.3 hPa | 0.51 mm | - | - | - |
| 1788539404 | 22.78° C | 89% | 986 hPa | 1.78 mm | - | - | - |
| 1788538511 | 22.22° C | 89% | 986 hPa | 1.78 mm | - | - | - |
| 1788537610 | 21.67° C | 89% | 986 hPa | 1.78 mm | - | - | - |
| 1788536710 | 22.78° C | 92% | 985.6 hPa | 0.51 mm | - | - | - |
| 1788535810 | 22.78° C | 93% | 987.1 hPa | 0.51 mm | - | - | - |
| 1788534905 | 21.67° C | 93% | 987.1 hPa | 1.02 mm | - | - | - |
| 1788534006 | 21.11° C | 93% | 987.1 hPa | 1.02 mm | - | - | - |
| 1788533111 | 21.11° C | 90% | 986.5 hPa | 1.27 mm | - | - | - |
| 1788532210 | 21.11° C | 94% | 987.2 hPa | 1.27 mm | - | - | - |
| 1788531311 | 22.22° C | 94% | 987.2 hPa | 0 mm | - | - | - |
| 1788530410 | 22.22° C | 93% | 986.9 hPa | 0 mm | - | - | - |
* Rain latest hour (hover to see other rain measurements)
** Current wind speed in m/s (hover to see current wind gust speed)